TimeEST,TemperatureF,Dew PointF,Humidity,Sea Level PressureIn,VisibilityMPH,Wind Direction,Wind SpeedMPH,Gust SpeedMPH,PrecipitationIn,Events,Conditions,WindDirDegrees,DateUTC
12:53 AM,10.9,-13.0,33,30.24,10.0,WNW,10.4,21.9,N/A,,Clear,300,2013-01-25 05:53:00
1:53 AM,10.9,-11.9,35,30.26,10.0,WNW,11.5,-,N/A,,Clear,300,2013-01-25 06:53:00
2:53 AM,10.0,-11.9,37,30.27,10.0,West,9.2,-,N/A,,Clear,280,2013-01-25 07:53:00
3:53 AM,8.1,-9.9,44,30.27,10.0,West,5.8,-,N/A,,Clear,270,2013-01-25 08:53:00
4:53 AM,9.0,-9.9,42,30.28,10.0,West,8.1,-,N/A,,Clear,280,2013-01-25 09:53:00
5:53 AM,9.0,-11.0,40,30.29,10.0,West,8.1,-,N/A,,Clear,260,2013-01-25 10:53:00
6:53 AM,9.0,-11.0,40,30.29,10.0,West,6.9,-,N/A,,Clear,280,2013-01-25 11:53:00
7:53 AM,10.0,-9.9,40,30.30,10.0,WNW,8.1,-,N/A,,Clear,290,2013-01-25 12:53:00
8:53 AM,12.9,-9.9,35,30.30,10.0,WNW,11.5,-,N/A,,Clear,300,2013-01-25 13:53:00
9:53 AM,17.1,-11.0,28,30.31,10.0,WNW,15.0,18.4,N/A,,Clear,290,2013-01-25 14:53:00
10:53 AM,19.9,-11.0,25,30.30,10.0,WNW,10.4,-,N/A,,Clear,290,2013-01-25 15:53:00
11:53 AM,21.9,-13.0,21,30.25,10.0,WNW,8.1,-,N/A,,Clear,290,2013-01-25 16:53:00
12:53 PM,24.1,-13.0,19,30.23,10.0,NW,8.1,-,N/A,,Clear,310,2013-01-25 17:53:00
1:53 PM,25.0,-11.0,20,30.19,10.0,WNW,8.1,-,N/A,,Clear,300,2013-01-25 18:53:00
2:53 PM,24.1,-9.9,22,30.17,10.0,West,9.2,-,N/A,,Clear,270,2013-01-25 19:53:00
3:53 PM,24.1,-9.0,23,30.17,10.0,WSW,10.4,-,N/A,,Clear,250,2013-01-25 20:53:00
4:53 PM,21.9,-7.1,28,30.17,10.0,West,8.1,-,N/A,,Clear,260,2013-01-25 21:53:00
5:53 PM,21.9,-7.1,28,30.15,10.0,West,6.9,-,N/A,,Partly Cloudy,270,2013-01-25 22:53:00
6:53 PM,21.9,-7.1,28,30.14,10.0,West,6.9,-,N/A,,Overcast,270,2013-01-25 23:53:00
7:53 PM,21.0,-6.0,30,30.12,10.0,WNW,4.6,-,N/A,,Overcast,300,2013-01-26 00:53:00
8:53 PM,21.0,-6.0,30,30.11,10.0,West,4.6,-,N/A,,Overcast,260,2013-01-26 01:53:00
9:22 PM,19.4,6.8,58,30.10,2.0,West,6.9,-,0.00,Snow,Light Snow,280,2013-01-26 02:22:00
9:53 PM,18.0,10.9,74,30.09,1.8,Calm,Calm,-,0.00,Snow,Light Snow,0,2013-01-26 02:53:00
10:04 PM,17.6,10.4,73,30.09,2.5,WNW,3.5,-,0.00,Snow,Light Snow,290,2013-01-26 03:04:00
10:13 PM,17.6,12.2,79,30.08,1.0,Calm,Calm,-,0.00,Snow,Light Snow,0,2013-01-26 03:13:00
10:53 PM,17.1,12.0,81,30.08,1.5,Calm,Calm,-,0.01,Snow,Light Snow,0,2013-01-26 03:53:00
11:28 PM,17.6,12.2,79,30.08,2.0,West,3.5,-,0.00,Snow,Light Snow,260,2013-01-26 04:28:00
11:53 PM,17.1,12.0,81,30.07,2.5,WNW,4.6,-,0.01,Snow,Light Snow,290,2013-01-26 04:53:00
11:56 PM,17.6,12.2,79,30.06,3.0,WNW,3.5,-,0.00,Snow,Light Snow,300,2013-01-26 04:56:00